FW0416 Weather Reports


time (UTC)temp
C
wind
direction
speed
KPH
gust
KPH
rain 1hr
cm
rain 24hr
cm
rain mn
cm
humidity
%
barometer
mb
20260504234759 23 144 1.6 3.2 0.00 0.00 0.00 44 1009.3
20260504234257 24 167 4.8 4.8 0.00 0.00 0.00 44 1009.3
20260504233753 24 137 6.4 9.7 0.00 0.00 0.00 44 1009.3
20260504233249 24 178 6.4 6.4 0.00 0.00 0.00 43 1009.4
20260504232746 24 154 0.0 0.0 0.00 0.00 0.00 44 1009.2
20260504232243 24 158 1.6 1.6 0.00 0.00 0.00 44 1009.5
20260504231740 25 156 16.1 20.9 0.00 0.00 0.00 43 1009.4
20260504231236 25 141 6.4 6.4 0.00 0.00 0.00 43 1009.4
20260504230732 25 165 3.2 4.8 0.00 0.00 0.00 43 1009.4
20260504230231 25 162 0.0 0.0 0.00 0.00 0.00 43 1009.5
20260504225729 25 136 4.8 4.8 0.00 0.00 0.00 43 1009.4
20260504225225 25 157 3.2 3.2 0.00 0.00 0.00 42 1009.5
20260504224722 25 156 8.0 11.3 0.00 0.00 0.00 42 1009.4
20260504224220 25 223 3.2 3.2 0.00 0.00 0.00 43 1009.1
20260504223716 25 142 1.6 3.2 0.00 0.00 0.00 42 1009.4
20260504223211 25 155 0.0 0.0 0.00 0.00 0.00 42 1009.4
20260504222709 25 134 11.3 17.7 0.00 0.00 0.00 41 1009.5
20260504222205 25 136 9.7 11.3 0.00 0.00 0.00 41 1009.5
20260504221703 25 243 3.2 6.4 0.00 0.00 0.00 40 1009.5
20260504221200 25 184 3.2 3.2 0.00 0.00 0.00 41 1009.6
20260504220656 25 179 3.2 6.4 0.00 0.00 0.00 41 1009.3
20260504220154 25 171 8.0 11.3 0.00 0.00 0.00 41 1009.6
20260504215650 25 275 3.2 3.2 0.00 0.00 0.00 41 1009.4
20260504215147 25 164 4.8 9.7 0.00 0.00 0.00 40 1009.2
20260504214643 25 140 4.8 6.4 0.00 0.00 0.00 40 1009.5
20260504214139 25 173 3.2 9.7 0.00 0.00 0.00 40 1009.5
20260504213636 25 158 11.3 14.5 0.00 0.00 0.00 39 1009.5
20260504213133 25 132 3.2 4.8 0.00 0.00 0.00 41 1009.6
20260504212629 25 260 4.8 4.8 0.00 0.00 0.00 40 1009.7
20260504212126 25 176 3.2 3.2 0.00 0.00 0.00 41 1009.7
20260504211624 26 194 4.8 6.4 0.00 0.00 0.00 40 1009.5
20260504211120 25 202 0.0 0.0 0.00 0.00 0.00 41 1009.6
20260504210618 26 162 4.8 6.4 0.00 0.00 0.00 41 1009.8
20260504210109 26 155 3.2 4.8 0.00 0.00 0.00 41 1009.7
20260504205606 26 194 3.2 4.8 0.00 0.00 0.00 39 1009.7
20260504205104 25 175 3.2 6.4 0.00 0.00 0.00 39 1009.8
20260504204602 26 115 6.4 12.9 0.00 0.00 0.00 38 1009.9
20260504204101 25 155 11.3 14.5 0.00 0.00 0.00 38 1010.1
20260504203559 25 236 3.2 3.2 0.00 0.00 0.00 39 1010.0
20260504203056 25 99 9.7 12.9 0.00 0.00 0.00 39 1010.0
20260504202551 25 118 4.8 4.8 0.00 0.00 0.00 39 1010.1
20260504202049 25 159 6.4 9.7 0.00 0.00 0.00 39 1010.2
20260504201545 25 187 3.2 4.8 0.00 0.00 0.00 41 1010.5
20260504201043 25 162 9.7 12.9 0.00 0.00 0.00 39 1010.3
20260504200539 26 70 3.2 4.8 0.00 0.00 0.00 39 1010.7
20260504200036 26 193 3.2 4.8 0.00 0.00 0.00 41 1010.4
20260504195531 26 209 3.2 3.2 0.00 0.00 0.00 41 1010.6
20260504195028 26 216 6.4 6.4 0.00 0.00 0.00 40 1010.6
20260504194525 26 148 0.0 0.0 0.00 0.00 0.00 43 1010.7
20260504194020 25 206 6.4 9.7 0.00 0.00 0.00 41 1010.8
20260504193517 25 159 6.4 9.7 0.00 0.00 0.00 40 1010.9
20260504193016 25 117 17.7 24.1 0.00 0.00 0.00 40 1010.9
20260504192514 25 167 3.2 4.8 0.00 0.00 0.00 41 1011.1
20260504192012 25 145 8.0 11.3 0.00 0.00 0.00 40 1011.3
20260504191509 26 218 6.4 6.4 0.00 0.00 0.00 41 1011.2
20260504191005 26 162 16.1 16.1 0.00 0.00 0.00 39 1011.3
20260504190501 25 132 6.4 11.3 0.00 0.00 0.00 43 1011.4
20260504185957 25 145 0.0 1.6 0.00 0.00 0.00 42 1011.4
20260504185455 26 154 8.0 11.3 0.00 0.00 0.00 39 1011.3
20260504184951 26 155 4.8 6.4 0.00 0.00 0.00 40 1011.5
20260504184447 26 127 1.6 1.6 0.00 0.00 0.00 41 1011.6
20260504183942 25 167 0.0 0.0 0.00 0.00 0.00 40 1011.5
20260504183440 25 178 3.2 4.8 0.00 0.00 0.00 40 1011.8
20260504182938 25 113 11.3 17.7 0.00 0.00 0.00 39 1011.7
20260504182434 26 163 3.2 3.2 0.00 0.00 0.00 41 1011.8
20260504181932 25 270 4.8 6.4 0.00 0.00 0.00 40 1011.9
20260504181429 25 174 4.8 9.7 0.00 0.00 0.00 40 1012.1
20260504180927 26 243 6.4 9.7 0.00 0.00 0.00 40 1012.1
20260504180426 25 168 0.0 1.6 0.00 0.00 0.00 41 1012.0
20260504175924 25 184 4.8 9.7 0.00 0.00 0.00 42 1012.0
20260504175420 25 226 4.8 9.7 0.00 0.00 0.00 42 1012.2
20260504174918 25 184 3.2 3.2 0.00 0.00 0.00 43 1012.1
20260504174415 25 138 3.2 3.2 0.00 0.00 0.00 43 1012.2
20260504173913 25 161 4.8 4.8 0.00 0.00 0.00 42 1012.3
20260504173409 25 202 4.8 6.4 0.00 0.00 0.00 42 1012.5
20260504172906 25 159 4.8 6.4 0.00 0.00 0.00 43 1012.4
20260504172402 25 132 4.8 9.7 0.00 0.00 0.00 44 1012.3
20260504171859 25 194 1.6 3.2 0.00 0.00 0.00 45 1012.5
20260504171356 25 158 3.2 3.2 0.00 0.00 0.00 46 1012.6
20260504170853 25 183 3.2 3.2 0.00 0.00 0.00 45 1012.6
20260504170349 25 183 3.2 6.4 0.00 0.00 0.00 46 1012.5
20260504160308 22 153 1.6 1.6 0.00 0.00 0.00 54 1013.3
20260504150733 21 210 3.2 3.2 0.00 0.00 0.00 59 1013.9
20260504150230 21 260 3.2 3.2 0.00 0.00 0.00 60 1013.9
20260504141159 18 177 0.0 1.6 0.00 0.00 0.00 69 1014.2
20260504140656 18 154 4.8 6.4 0.00 0.00 0.00 68 1014.1
20260504140152 18 154 1.6 3.2 0.00 0.00 0.00 69 1014.0
20260504130620 16 159 1.6 1.6 0.00 0.00 0.00 77 1013.9
20260504130117 16 145 4.8 4.8 0.00 0.00 0.00 79 1014.0
20260504110508 12 136 0.0 0.0 0.00 0.00 0.00 90 1012.8
20260504100430 12 140 0.0 0.0 0.00 0.00 0.00 89 1013.4
20260504081823 12 139 0.0 0.0 0.00 0.00 0.00 87 1013.4
20260504081320 12 143 0.0 0.0 0.00 0.00 0.00 87 1013.6
20260504080816 12 143 0.0 0.0 0.00 0.00 0.00 87 1013.5
20260504080313 12 143 0.0 0.0 0.00 0.00 0.00 87 1013.6
20260504070240 12 139 0.0 0.0 0.00 0.00 0.00 87 1014.0
20260504060201 12 142 0.0 0.0 0.00 0.00 0.00 85 1014.7
20260504050629 13 146 0.0 0.0 0.00 0.00 0.00 81 1015.1
20260504050126 13 143 0.0 0.0 0.00 0.00 0.00 81 1015.1
20260504045623 13 143 0.0 0.0 0.00 0.00 0.00 82 1015.1
20260504045118 13 141 0.0 0.0 0.00 0.00 0.00 82 1015.1
20260504044616 13 141 0.0 0.0 0.00 0.00 0.00 83 1015.0
20260504044112 13 142 0.0 0.0 0.00 0.00 0.00 82 1015.0
20260504043610 13 143 0.0 0.0 0.00 0.00 0.00 81 1015.0
20260504043107 13 145 0.0 0.0 0.00 0.00 0.00 81 1015.2
20260504042604 13 144 0.0 0.0 0.00 0.00 0.00 79 1015.0
20260504042100 13 144 0.0 0.0 0.00 0.00 0.00 78 1015.0
20260504041556 13 144 0.0 0.0 0.00 0.00 0.00 79 1015.0
20260504041053 13 143 0.0 0.0 0.00 0.00 0.00 81 1015.1
20260504040550 13 144 0.0 0.0 0.00 0.00 0.00 80 1014.8
20260504040047 13 144 0.0 0.0 0.00 0.00 0.00 81 1015.0
20260504035543 13 144 0.0 0.0 0.00 0.00 0.00 81 1015.0
20260504035040 13 143 0.0 0.0 0.00 0.00 0.00 79 1015.1
20260504034538 13 141 0.0 0.0 0.00 0.00 0.00 80 1015.3
20260504034034 13 140 0.0 0.0 0.00 0.00 0.00 81 1015.1
20260504033533 13 140 0.0 0.0 0.00 0.00 0.00 81 1015.1
20260504033030 13 140 0.0 0.0 0.00 0.00 0.00 80 1015.1
20260504032527 13 138 0.0 0.0 0.00 0.00 0.00 82 1015.2
20260504032023 13 137 0.0 0.0 0.00 0.00 0.00 81 1015.1
20260504031520 13 139 0.0 0.0 0.00 0.00 0.00 80 1015.3
20260504031016 13 136 0.0 0.0 0.00 0.00 0.00 81 1015.4
20260504030514 13 133 0.0 0.0 0.00 0.00 0.00 81 1015.4
20260504030010 13 136 0.0 0.0 0.00 0.00 0.00 78 1015.4
20260504025507 13 139 0.0 0.0 0.00 0.00 0.00 78 1015.5
20260504025003 14 139 0.0 0.0 0.00 0.00 0.00 76 1015.3
20260504024500 14 139 0.0 0.0 0.00 0.00 0.00 75 1015.2
20260504023958 14 139 0.0 0.0 0.00 0.00 0.00 74 1015.2
20260504023455 14 139 0.0 0.0 0.00 0.00 0.00 74 1015.4
20260504022950 14 139 0.0 0.0 0.00 0.00 0.00 72 1015.4
20260504022446 15 139 0.0 0.0 0.00 0.00 0.00 73 1015.3
20260504021943 15 139 0.0 0.0 0.00 0.00 0.00 73 1015.2
20260504021440 15 137 0.0 0.0 0.00 0.00 0.00 72 1015.0
20260504020938 15 137 0.0 0.0 0.00 0.00 0.00 71 1015.1
20260504020434 15 141 0.0 0.0 0.00 0.00 0.00 71 1015.1
20260504015931 15 141 0.0 0.0 0.00 0.00 0.00 71 1014.9
20260504015427 15 141 0.0 0.0 0.00 0.00 0.00 70 1015.0
20260504014923 16 142 0.0 0.0 0.00 0.00 0.00 69 1015.0
20260504014419 16 142 0.0 0.0 0.00 0.00 0.00 68 1015.0
20260504013916 16 142 0.0 0.0 0.00 0.00 0.00 66 1014.9
20260504013415 16 142 0.0 0.0 0.00 0.00 0.00 65 1014.9
20260504012910 16 140 0.0 0.0 0.00 0.00 0.00 64 1014.7
20260504012408 16 135 0.0 0.0 0.00 0.00 0.00 64 1014.6
20260504011905 17 142 0.0 0.0 0.00 0.00 0.00 62 1014.8
20260504011402 17 144 0.0 0.0 0.00 0.00 0.00 62 1014.7
20260504010858 17 145 0.0 0.0 0.00 0.00 0.00 60 1015.0
20260504010354 17 142 0.0 0.0 0.00 0.00 0.00 59 1014.8
20260504005851 18 142 0.0 0.0 0.00 0.00 0.00 58 1014.7
20260504005347 18 144 0.0 0.0 0.00 0.00 0.00 56 1014.8
20260504004845 18 144 0.0 0.0 0.00 0.00 0.00 54 1014.8
20260504004343 19 144 0.0 0.0 0.00 0.00 0.00 53 1014.9
20260504003839 20 144 0.0 0.0 0.00 0.00 0.00 51 1014.8
20260504003336 20 145 0.0 0.0 0.00 0.00 0.00 49 1014.9
20260504002832 20 145 0.0 0.0 0.00 0.00 0.00 48 1014.8
20260504002329 20 143 0.0 0.0 0.00 0.00 0.00 47 1014.7
20260504001827 21 142 0.0 0.0 0.00 0.00 0.00 45 1014.9
20260504001324 21 142 0.0 0.0 0.00 0.00 0.00 45 1014.7
20260504000820 21 147 0.0 0.0 0.00 0.00 0.00 42 1014.7
20260504000318 21 138 0.0 0.0 0.00 0.00 0.00 42 1014.8
20260503235815 21 160 0.0 0.0 0.00 0.00 0.00 41 1014.7
20260503235313 22 153 0.0 0.0 0.00 0.00 0.00 41 1014.8